[[{"header":{"parameterUnit":"m.s-1","parameterCategory":1,"la1":30.2991,"la2":30.254,"lo1":-89.0895,"lo2":-89.0444,"dy":0.0017,"dx":0.0017,"nx":28,"ny":28,"refTime":"2024-10-14T03:00:00:Z","depth":0,"parameterNumber":2,"parameterNumberName":"U-component_of_WINDS"},"data":[0,0,0,0,0,0,0,0,0,0,0,0,0,0,0,0,0,0,0,0,0,0,0,0,0,0,0,0,0,0,0,0,0,0,0,0,0,0,0,0,0,0,0,0,0,0,0,0,0,0,0,0,0,0,0,0,0,0,0.299,0.2989,0,0.2915,0.2914,0.2913,0.2858,0.2857,0.2857,0.2856,0.278,0.2778,0.2776,0,0,0,0,0,0,0,0,0,0,0,0,0,0.3089,0.3087,0.299,0.2989,0.2988,0.2915,0.2914,0.2913,0.2858,0.2857,0.2857,0.2856,0.278,0.2778,0.2776,0,0,0,0,0,0,0,0,0,0,0,0,0,0.3033,0.3087,0.299,0.2952,0.2948,0.2915,0.2914,0.2912,0.2858,0.2857,0.2857,0.2856,0.2781,0.2778,0.2776,0.2775,0,0,0.2769,0.2768,0,0,0,0,0,0,0,0,0.3036,0.3029,0.2959,0.2955,0.295,0.2895,0.292,0.2866,0.2858,0.2892,0.2856,0.2856,0.2819,0.2813,0.28,0.2772,0.2768,0.2768,0.2767,0.2766,0.2765,0,0,0,0,0,0,0,0.304,0.3032,0.296,0.2958,0.2952,0.2939,0.2931,0.291,0.286,0.2889,0.2885,0.2877,0.2816,0.2803,0.2798,0.2767,0.2768,0.2766,0.2765,0.2764,0.2737,0.2737,0,0,0,0,0,0,0.305,0.3036,0.2963,0.2958,0.2992,0.2938,0.2928,0.2913,0.286,0.2852,0.2877,0.2874,0.2807,0.2801,0.2795,0.2792,0.2766,0.2764,0.2762,0.2736,0.2737,0.2738,0,0,0,0,0,0,0.3052,0.3044,0.2966,0.2996,0.2985,0.2937,0.2921,0.2912,0.2899,0.2851,0.2842,0.2873,0.2806,0.2799,0.2781,0.2789,0.2763,0.276,0.2735,0.2736,0.2737,0.2785,0,0,0,0,0,0,0.3055,0.3045,0.3043,0.2996,0.2984,0.2952,0.2921,0.2911,0.2895,0.289,0.2845,0.2837,0.2805,0.2785,0.2779,0.2785,0.2758,0.2734,0.2736,0.2737,0.2783,0.2788,0.2792,0,0,0,0,0,0.3059,0.3059,0.3044,0.3035,0.298,0.2953,0.2945,0.2909,0.2896,0.2894,0.2864,0.2838,0.2789,0.2784,0.2776,0.2782,0.2734,0.2735,0.2737,0.2781,0.2787,0.2792,0,0,0,0,0,0,0.3108,0.3052,0.3034,0.3019,0.2991,0.2943,0.294,0.2917,0.2892,0.2888,0.2845,0.2835,0.2823,0.28,0.2795,0.278,0.2758,0.2759,0.2794,0.28,0.2804,0.281,0.2756,0,0,0,0,0,0.3117,0.3099,0.3051,0.3043,0.303,0.2988,0.2974,0.2949,0.2918,0.2906,0.2875,0.2846,0.2825,0.2811,0.2788,0.278,0.277,0.278,0.2785,0.2789,0.2789,0.2785,0.279,0.2743,0.2743,0.2743,0,0,0.3135,0.3103,0.3094,0.3052,0.3027,0.301,0.2978,0.296,0.2948,0.2903,0.2885,0.2862,0.2827,0.2815,0.2808,0.2796,0.2801,0.2791,0.2795,0.2793,0.2788,0.2792,0.2796,0.2744,0.2744,0.2744,0,0,0.316,0.3133,0.3124,0.3101,0.3064,0.3037,0.3035,0.2991,0.2974,0.2955,0.2923,0.2907,0.287,0.2848,0.2831,0.2852,0.2827,0.2846,0.287,0.2866,0.287,0.2873,0.2881,0.2884,0.2846,0.2846,0.2847,0,0.3187,0.3159,0.3122,0.3107,0.3091,0.3051,0.3042,0.3022,0.298,0.297,0.2957,0.2912,0.2886,0.2868,0.2874,0.2861,0.2859,0.285,0.2872,0.2875,0.2877,0.2885,0.2888,0.2849,0.2849,0.2848,0.2848,0,0.3195,0.3177,0.3174,0.3135,0.3119,0.3107,0.3069,0.3057,0.3035,0.3009,0.2992,0.296,0.2931,0.2925,0.2902,0.2905,0.2899,0.288,0.2858,0.2885,0.2891,0.2893,0.2853,0.2852,0.2851,0.285,0,0,0.3245,0.3189,0.3188,0.3172,0.313,0.3115,0.3104,0.3076,0.3067,0.304,0.3029,0.3001,0.2984,0.2966,0.2941,0.2938,0.2958,0.2919,0.2918,0.2928,0.2961,0.2975,0.2979,0.2942,0.2942,0.2942,0.2964,0,0.3263,0.3238,0.3206,0.3193,0.3176,0.3141,0.313,0.3105,0.3082,0.3065,0.3039,0.302,0.2999,0.2988,0.2984,0.2956,0.2964,0.2954,0.2932,0.2932,0.2941,0.2982,0.2996,0.3017,0.2966,0.2966,0.2966,0,0.328,0.3257,0.3242,0.3204,0.3196,0.3187,0.3161,0.3145,0.3117,0.31,0.3082,0.3055,0.3042,0.3023,0.3005,0.3,0.2989,0.2975,0.2975,0.2971,0.295,0.2979,0.3023,0.3026,0.297,0.2969,0.2969,0,0.3319,0.3284,0.3271,0.3257,0.3213,0.3208,0.319,0.316,0.3147,0.3124,0.3115,0.3091,0.3078,0.3061,0.303,0.3018,0.3016,0.2993,0.3002,0.3003,0.3002,0.3002,0.3045,0.2996,0.2996,0.2996,0.2996,0,0.3342,0.3334,0.3288,0.328,0.3271,0.3236,0.3228,0.3206,0.3181,0.3169,0.3137,0.3127,0.3087,0.3072,0.3048,0.3037,0.3032,0.3019,0.3012,0.3021,0.3023,0.3013,0.301,0.2997,0.2997,0.2996,0.2996,0,0.3382,0.3351,0.3335,0.3295,0.3286,0.3281,0.3248,0.3239,0.3216,0.3201,0.3196,0.3159,0.314,0.3108,0.308,0.3064,0.3059,0.3047,0.3068,0.3064,0.3075,0.3074,0.3112,0.3116,0.3065,0.3066,0.3066,0,0.3399,0.3392,0.3353,0.3343,0.3326,0.331,0.3297,0.3263,0.325,0.3219,0.3215,0.3194,0.3176,0.3148,0.3119,0.3098,0.3086,0.3102,0.3083,0.3093,0.3087,0.3088,0.3088,0.3105,0.3106,0.3107,0.3107,0,0.3431,0.3417,0.3398,0.3376,0.3361,0.3342,0.332,0.3314,0.3276,0.3264,0.3245,0.3231,0.3204,0.3184,0.316,0.3141,0.3118,0.3114,0.3114,0.3123,0.3136,0.313,0.3079,0.3112,0.3112,0.3111,0.3111,0.3111,0.346,0.3453,0.3426,0.3407,0.3388,0.337,0.3361,0.3338,0.3321,0.3296,0.3278,0.3261,0.3235,0.32,0.3184,0.3171,0.316,0.3161,0.3161,0.3162,0.3166,0.3139,0.3166,0.3166,0.3166,0.3166,0.3166,0,0.3491,0.3472,0.3456,0.3428,0.3414,0.3395,0.3372,0.3362,0.3347,0.3325,0.3309,0.3288,0.327,0.3241,0.3221,0.3216,0.3205,0.3212,0.3212,0.3208,0.3177,0.3178,0.3221,0.3221,0.3221,0.3221,0.3221,0.3221,0.3505,0.3494,0.3477,0.3457,0.3438,0.3421,0.341,0.3394,0.3376,0.3356,0.334,0.3322,0.3298,0.3276,0.3259,0.3252,0.3246,0.3256,0.3245,0.3215,0.321,0.3205,0.3206,0.3255,0.3255,0.3277,0.3277,0.3278]},{"header":{"parameterUnit":"m.s-1","parameterCategory":1,"la1":30.2991,"la2":30.254,"lo1":-89.0895,"lo2":-89.0444,"dy":0.0017,"dx":0.0017,"nx":28,"ny":28,"refTime":"2024-10-14T03:00:00:Z","depth":0,"parameterNumber":3,"parameterNumberName":"V-component_of_WINDS"},"data":[0,0,0,0,0,0,0,0,0,0,0,0,0,0,0,0,0,0,0,0,0,0,0,0,0,0,0,0,0,0,0,0,0,0,0,0,0,0,0,0,0,0,0,0,0,0,0,0,0,0,0,0,0,0,0,0,0,0,-4.0891,-4.0892,0,-4.094,-4.0941,-4.0942,-4.0958,-4.0958,-4.0957,-4.0957,-4.1004,-4.1006,-4.1007,0,0,0,0,0,0,0,0,0,0,0,0,0,-4.081,-4.0812,-4.0891,-4.0892,-4.0892,-4.094,-4.0941,-4.0942,-4.0958,-4.0958,-4.0957,-4.0957,-4.1004,-4.1006,-4.1007,0,0,0,0,0,0,0,0,0,0,0,0,0,-4.0851,-4.0812,-4.0891,-4.0906,-4.0908,-4.094,-4.0941,-4.0942,-4.0958,-4.0958,-4.0957,-4.0957,-4.1003,-4.1005,-4.1008,-4.1027,0,0,-4.1014,-4.1015,0,0,0,0,0,0,0,0,-4.0849,-4.0854,-4.0903,-4.0905,-4.0907,-4.0943,-4.093,-4.097,-4.0958,-4.0939,-4.0957,-4.0957,-4.0984,-4.0988,-4.0997,-4.1029,-4.1031,-4.1014,-4.1016,-4.1017,-4.1017,0,0,0,0,0,0,0,-4.0846,-4.0852,-4.091,-4.0904,-4.0907,-4.0911,-4.0916,-4.0938,-4.0962,-4.0941,-4.0942,-4.0948,-4.0985,-4.0995,-4.0999,-4.1032,-4.1014,-4.1016,-4.1018,-4.1018,-4.1085,-4.1085,0,0,0,0,0,0,-4.0841,-4.0849,-4.0909,-4.0912,-4.0877,-4.0912,-4.0918,-4.0932,-4.0962,-4.0967,-4.0948,-4.0948,-4.0992,-4.0996,-4.1,-4.1027,-4.1017,-4.1019,-4.102,-4.1084,-4.1085,-4.1085,0,0,0,0,0,0,-4.0839,-4.0846,-4.0907,-4.0881,-4.0889,-4.0914,-4.0929,-4.0933,-4.0943,-4.0968,-4.0972,-4.0954,-4.0992,-4.0997,-4.1021,-4.1028,-4.102,-4.1022,-4.1084,-4.1084,-4.1085,-4.1078,0,0,0,0,0,0,-4.0836,-4.0845,-4.0852,-4.0881,-4.0891,-4.0927,-4.0929,-4.0934,-4.0947,-4.0948,-4.0975,-4.0979,-4.0992,-4.1018,-4.1023,-4.1031,-4.1023,-4.1083,-4.1084,-4.1085,-4.1078,-4.1078,-4.1079,0,0,0,0,0,-4.0833,-4.0847,-4.0853,-4.086,-4.0901,-4.0927,-4.0933,-4.0948,-4.0948,-4.0956,-4.0972,-4.0978,-4.1027,-4.102,-4.1026,-4.1035,-4.1083,-4.1084,-4.1085,-4.1077,-4.1078,-4.1079,0,0,0,0,0,0,-4.0816,-4.0851,-4.0858,-4.0881,-4.0901,-4.093,-4.094,-4.0948,-4.0968,-4.0968,-4.0986,-4.0992,-4.1015,-4.1027,-4.1019,-4.1057,-4.1055,-4.1058,-4.1047,-4.1048,-4.1049,-4.1045,-4.1025,0,0,0,0,0,-4.0816,-4.0835,-4.0864,-4.0882,-4.0892,-4.0915,-4.0927,-4.0938,-4.0959,-4.0967,-4.0985,-4.1005,-4.1025,-4.1037,-4.1057,-4.108,-4.1087,-4.109,-4.109,-4.1091,-4.1092,-4.1107,-4.1109,-4.1089,-4.1089,-4.1089,0,0,-4.0813,-4.0835,-4.0845,-4.0879,-4.0896,-4.0916,-4.0921,-4.0941,-4.0956,-4.097,-4.0994,-4.1008,-4.1031,-4.1055,-4.1067,-4.1067,-4.11,-4.1092,-4.1092,-4.1093,-4.1108,-4.111,-4.1112,-4.109,-4.1089,-4.1089,0,0,-4.0819,-4.0838,-4.0856,-4.0874,-4.09,-4.0916,-4.092,-4.0949,-4.0959,-4.0984,-4.0996,-4.1014,-4.1048,-4.1065,-4.1077,-4.1095,-4.1101,-4.1101,-4.1104,-4.1118,-4.112,-4.1121,-4.1128,-4.113,-4.1102,-4.1102,-4.1102,0,-4.0813,-4.0844,-4.0863,-4.0884,-4.0899,-4.0915,-4.0934,-4.095,-4.0981,-4.0991,-4.0991,-4.1036,-4.1052,-4.1082,-4.1087,-4.1096,-4.1102,-4.1097,-4.1118,-4.112,-4.1121,-4.1128,-4.1131,-4.1102,-4.1102,-4.1102,-4.1102,0,-4.0835,-4.0857,-4.0868,-4.09,-4.0917,-4.0936,-4.0959,-4.0973,-4.0984,-4.1,-4.1026,-4.1047,-4.1073,-4.1081,-4.109,-4.1112,-4.1112,-4.1115,-4.1113,-4.1123,-4.113,-4.1132,-4.1102,-4.1102,-4.1102,-4.1102,0,0,-4.0828,-4.0874,-4.0878,-4.0894,-4.0927,-4.0944,-4.0965,-4.0992,-4.1004,-4.1026,-4.1044,-4.1075,-4.1079,-4.1094,-4.1106,-4.1119,-4.1133,-4.1121,-4.1122,-4.1122,-4.116,-4.1157,-4.1159,-4.1138,-4.1139,-4.1139,-4.1158,0,-4.0838,-4.0878,-4.0898,-4.0928,-4.0949,-4.0967,-4.0986,-4.1008,-4.1024,-4.1044,-4.1062,-4.1083,-4.1087,-4.1096,-4.111,-4.1128,-4.1141,-4.1127,-4.1155,-4.1156,-4.1148,-4.1163,-4.1159,-4.1175,-4.1161,-4.1161,-4.1161,0,-4.0855,-4.088,-4.0913,-4.0946,-4.0956,-4.0972,-4.1,-4.1019,-4.1045,-4.1056,-4.1075,-4.1088,-4.1111,-4.111,-4.1143,-4.1134,-4.1147,-4.1158,-4.1159,-4.1161,-4.1158,-4.1165,-4.1181,-4.1183,-4.1166,-4.1165,-4.1165,0,-4.0847,-4.0889,-4.0915,-4.0928,-4.0967,-4.0979,-4.0995,-4.1022,-4.1038,-4.1062,-4.1073,-4.1099,-4.1113,-4.1133,-4.1153,-4.115,-4.1184,-4.1184,-4.1194,-4.1193,-4.1199,-4.1198,-4.1216,-4.1208,-4.1208,-4.1208,-4.1208,0,-4.0856,-4.0876,-4.0912,-4.0928,-4.0951,-4.0975,-4.0997,-4.1015,-4.1039,-4.1059,-4.1076,-4.1094,-4.1119,-4.1141,-4.1156,-4.1182,-4.1188,-4.1198,-4.1201,-4.1196,-4.1195,-4.1203,-4.1203,-4.1209,-4.1209,-4.1209,-4.1208,0,-4.085,-4.0875,-4.0905,-4.0941,-4.0951,-4.0967,-4.0998,-4.1014,-4.1033,-4.1058,-4.1065,-4.1094,-4.1121,-4.1143,-4.1177,-4.1188,-4.1214,-4.1219,-4.1206,-4.1208,-4.1217,-4.1215,-4.124,-4.1245,-4.1234,-4.1235,-4.1235,0,-4.0853,-4.087,-4.0909,-4.0925,-4.0942,-4.0966,-4.0984,-4.1009,-4.1026,-4.106,-4.1072,-4.11,-4.1124,-4.1166,-4.1189,-4.1216,-4.1222,-4.1229,-4.1225,-4.122,-4.1222,-4.122,-4.1222,-4.1228,-4.1228,-4.1228,-4.1228,0,-4.0857,-4.087,-4.0895,-4.0926,-4.0947,-4.0971,-4.0996,-4.1008,-4.1038,-4.1057,-4.1085,-4.1104,-4.1141,-4.1169,-4.1199,-4.1216,-4.1227,-4.123,-4.1234,-4.1227,-4.1219,-4.1224,-4.1206,-4.1228,-4.1228,-4.1228,-4.1228,-4.1228,-4.0856,-4.0872,-4.0903,-4.0932,-4.0954,-4.0978,-4.0996,-4.1019,-4.1044,-4.1077,-4.109,-4.112,-4.1148,-4.1191,-4.1208,-4.1232,-4.1233,-4.1238,-4.1239,-4.124,-4.124,-4.1217,-4.1237,-4.1237,-4.1237,-4.1237,-4.1237,0,-4.0861,-4.0883,-4.0909,-4.0945,-4.0968,-4.0979,-4.1009,-4.1026,-4.1053,-4.108,-4.1104,-4.1138,-4.1166,-4.1194,-4.1224,-4.1237,-4.1243,-4.1244,-4.1243,-4.1247,-4.1236,-4.123,-4.1239,-4.1239,-4.1239,-4.1239,-4.1239,-4.1239,-4.0865,-4.0894,-4.0911,-4.0952,-4.0974,-4.1004,-4.102,-4.1043,-4.1065,-4.1103,-4.1127,-4.1146,-4.1174,-4.1206,-4.1233,-4.1241,-4.1251,-4.125,-4.1259,-4.1248,-4.1247,-4.1247,-4.1241,-4.1252,-4.1252,-4.1268,-4.1268,-4.1268]}]]